Location: Byszew
(52.1813°N, 19.2693°E)
Time: 02:39:38
(UTC+00:00)

Envisat - Pass Details

Date: 27 January 2022
Orbit: 764 x 765 km, 98.2° (Epoch: 28 May)

Event Time Altitude Azimuth Distance (km) Brightness Sun altitude
Rises 03:39:38 0° 15° (NNE) 3,244 6.5 -26.1°
Reaches altitude 10° 03:41:58 10° 18° (NNE) 2,313 5.7 -25.7°
Maximum altitude 03:47:03 73° 103° (ESE) 803 3.1 -24.9°
Drops below altitude 10° 03:52:07 10° 189° (S) 2,297 5.4 -24.2°
Sets 03:54:25 0° 191° (S) 3,219 6.1 -23.8°
